HXMT (HUIYAN)

Last updated on Fri Dec 19 2025 00:02:17 GMT+0000 (Coordinated Universal Time)

1 42758U 17034A 25352.65369772 .00004875 00000+0 25622-3 0 9996 2 42758 43.0137 106.8081 0031130 82.2554 278.1827 15.16300438470236
UTC large
Height (km)
Speed (km/s)
/
Latitude / Longitude
Inclination (degrees)
Orbital Period (minutes)
Azimuth
Elevation
Range (km)
Doppler Factor

Next 0 passes for location: London (51.5072 / 0.1276)

Sorry there are no passes over London.